Theta_e
317 317 317 317 317 317 318 318 318 318 319 319 319 320 320 321 321 321 322 322 323 323 324 324 325 325 326 326 327 326 322 322 320 321 316 320 328 334 335 337 338 337 336 324 320 311 307 308 307 309 310 314 315 312 313 316 313 315 304 299 296 295 299 302 299 299 301 299 298 300 301 301 298 301 303 304 303 303 303 303 305 307 307 309 320 325 325 325
318 318 317 316 316 317 317 317 317 317 318 319 319 319 320 321 321 321 322 322 322 323 323 324 324 325 326 325 326 326 320 325 317 314 314 327 333 335 335 335 336 336 331 319 311 307 306 305 307 306 307 306 316 311 314 313 317 307 299 298 294 299 300 301 301 301 299 299 300 301 301 301 301 301 302 299 299 300 300 301 303 303 305 307 314 322 322 322
318 317 316 316 317 316 316 316 316 317 318 318 319 319 319 320 320 321 321 322 322 322 323 323 324 325 325 325 325 324 323 323 315 308 320 332 334 334 334 333 333 335 323 317 314 310 307 307 307 305 305 303 306 306 311 308 310 306 304 297 298 303 300 302 303 301 302 303 301 300 301 301 302 302 303 300 298 300 298 298 299 301 303 304 311 318 320 321
317 316 315 316 316 315 315 316 317 317 317 318 319 319 319 320 320 321 321 322 322 322 322 323 324 325 324 324 325 322 320 324 304 313 323 332 333 334 332 332 331 328 324 321 318 310 309 308 308 306 309 305 305 309 304 307 304 305 300 299 301 299 299 300 302 302 301 302 302 301 301 301 302 303 301 300 297 298 300 302 301 302 304 305 309 316 318 319
317 315 315 315 315 314 315 316 317 317 317 318 319 319 319 319 320 320 321 321 322 322 323 323 324 324 324 325 323 323 326 299 303 317 319 331 332 330 331 328 330 320 314 314 311 309 308 306 306 306 307 299 303 303 299 304 307 306 297 300 301 300 298 301 301 301 300 301 303 300 298 300 303 303 301 300 296 295 303 304 304 304 305 307 307 316 317 319
314 314 315 315 314 315 315 315 316 316 317 318 318 318 318 319 320 320 320 321 322 322 322 323 323 323 324 324 320 325 315 290 312 322 325 328 330 327 328 329 328 321 313 310 309 311 307 306 305 304 301 300 298 296 299 302 304 297 300 300 300 301 300 302 302 300 299 302 301 300 302 302 301 301 301 300 299 301 304 305 305 306 309 309 309 315 314 318
314 314 315 314 313 314 314 314 314 315 316 316 316 317 317 319 319 319 320 320 321 322 322 322 323 323 322 320 322 319 306 311 310 325 330 327 327 329 323 324 328 316 312 310 308 309 307 304 304 301 300 302 299 298 301 301 304 300 297 299 299 301 300 301 299 300 299 300 300 301 302 301 299 298 304 300 301 303 304 306 304 306 309 310 309 313 313 316
314 315 314 313 313 313 313 313 314 314 314 315 316 316 317 318 319 319 319 320 321 321 322 322 323 323 321 323 319 309 309 309 317 323 321 327 321 315 321 317 315 320 313 309 308 305 306 303 301 307 300 298 299 300 303 300 301 297 298 300 300 301 301 300 299 299 300 301 300 301 300 300 301 300 299 299 302 303 304 305 304 304 305 308 309 309 312 314
315 315 315 314 312 312 312 313 313 313 314 315 316 316 317 317 318 318 319 320 321 321 322 322 323 322 320 315 312 305 300 319 321 319 321 318 312 312 320 318 318 312 311 310 310 308 309 304 303 305 298 300 305 300 299 298 296 301 300 300 300 300 301 299 300 301 301 302 302 300 299 301 300 302 299 301 302 303 304 304 304 304 303 303 308 308 309 311
315 315 314 313 312 311 311 311 312 313 315 315 315 316 317 318 318 318 319 320 321 321 321 323 322 321 317 318 312 297 316 316 320 319 316 314 312 312 314 315 314 312 310 309 310 309 308 307 307 309 310 301 304 300 302 299 298 303 300 301 300 299 300 301 301 300 301 302 301 299 299 300 299 299 295 301 302 304 303 304 305 303 302 303 303 308 309 309
314 313 313 312 312 312 312 312 312 314 315 315 316 316 317 317 317 318 319 320 320 321 322 322 323 321 323 314 303 296 319 317 319 314 313 316 313 313 314 313 312 313 310 310 312 309 311 309 312 309 306 300 303 300 301 301 303 303 301 300 299 300 301 300 301 299 300 300 301 301 298 300 299 301 297 302 303 304 303 303 303 303 302 302 303 303 306 307
313 313 313 313 312 313 313 312 313 314 315 316 316 317 317 317 318 318 318 319 320 321 322 322 322 320 313 308 301 305 315 316 316 313 320 317 315 316 316 314 313 319 311 310 314 316 315 314 312 306 299 307 297 300 300 303 303 301 300 296 298 299 298 299 299 300 300 299 300 303 298 296 297 295 300 301 303 303 303 302 302 302 303 302 302 303 303 304
315 314 314 314 313 313 313 313 314 314 315 315 316 317 317 317 318 318 318 319 320 321 322 322 320 322 317 300 310 314 318 316 317 312 316 316 314 315 316 318 318 314 314 312 311 316 316 312 311 306 307 304 300 295 302 305 303 302 301 298 297 296 295 299 301 300 299 300 301 300 288 291 297 300 301 302 302 302 302 300 300 302 302 302 302 302 304 305
316 316 315 315 314 314 314 313 314 315 315 316 316 317 317 317 318 318 319 319 321 321 322 321 320 314 308 298 311 319 317 317 314 314 318 318 315 321 316 321 318 313 316 310 313 313 318 311 315 306 310 303 299 307 302 302 302 296 298 300 294 292 291 299 300 299 297 300 300 301 290 291 297 301 302 303 303 301 299 299 299 301 302 302 303 302 304 306
316 316 316 316 315 314 314 315 315 316 316 316 316 317 317 317 318 319 320 320 321 322 321 320 318 315 299 303 313 317 326 318 313 314 318 315 314 313 312 315 312 311 310 310 314 314 311 316 313 304 300 305 304 301 297 297 297 298 292 289 293 292 295 299 301 299 296 298 300 299 291 292 297 298 302 302 302 302 299 299 299 301 301 303 303 304 303 305
317 317 317 316 316 316 316 316 316 316 317 316 316 317 317 318 319 319 320 321 322 322 319 321 318 311 300 298 314 325 320 310 310 318 314 317 316 314 315 312 314 312 312 309 313 311 311 314 305 304 301 303 300 297 294 295 295 296 292 293 291 292 293 296 297 301 300 298 300 297 290 294 296 298 300 300 301 300 298 299 300 301 302 302 302 303 304 304
318 317 317 317 317 316 317 317 317 317 317 317 317 317 318 319 319 319 321 321 320 321 319 309 307 305 296 307 307 308 306 315 315 317 316 314 313 314 312 314 311 310 313 313 317 316 310 307 305 304 306 297 297 299 292 290 291 291 294 289 296 291 292 290 295 298 301 298 294 296 292 293 296 298 300 300 301 300 299 299 301 301 300 301 301 302 303 304
318 317 318 317 317 317 317 318 317 318 318 317 317 317 317 319 321 317 321 319 321 315 313 312 311 308 297 300 300 304 312 311 317 312 314 311 312 311 313 309 310 309 311 307 313 307 310 302 302 298 297 299 296 294 289 286 291 290 290 289 290 296 293 292 291 295 298 297 294 294 294 294 297 299 299 300 301 300 299 299 300 300 300 300 301 302 303 303
318 318 318 318 318 318 318 318 318 318 317 318 319 321 321 320 320 321 315 313 308 301 297 300 299 291 294 297 308 310 315 312 315 315 308 312 316 313 313 311 313 305 303 300 300 303 305 303 304 297 293 292 293 295 293 296 294 291 294 294 292 290 291 290 294 297 298 294 293 293 292 294 296 298 299 300 300 300 300 300 300 300 300 300 301 301 302 303
319 319 318 318 318 318 318 318 318 318 318 316 318 320 318 315 313 303 309 306 302 299 303 302 301 301 304 306 307 309 313 315 306 311 314 313 314 311 308 307 312 308 301 298 302 300 305 296 292 291 295 295 296 297 298 296 295 293 296 295 291 291 293 295 295 296 297 293 291 293 294 294 295 296 298 298 298 298 297 298 298 299 300 301 300 301 302 302
319 319 319 318 318 318 318 318 319 318 317 315 315 313 298 301 296 294 299 300 303 304 305 302 304 305 306 308 308 307 304 305 309 309 314 315 311 307 303 304 302 300 299 302 301 302 302 294 294 297 298 298 298 297 297 296 294 294 294 293 290 295 291 296 294 296 295 293 290 292 292 293 294 295 297 298 298 297 298 298 298 299 300 301 301 302 302 303
320 319 319 319 318 318 318 318 318 318 317 316 314 309 305 305 309 307 308 294 305 309 304 306 304 305 309 309 311 312 312 302 306 308 314 314 307 301 301 301 298 294 299 300 298 296 294 290 295 298 299 298 297 297 296 294 295 295 292 291 291 291 295 295 294 295 297 294 289 291 290 292 294 295 297 297 298 299 300 300 299 299 298 301 302 302 302 302
319 320 319 319 318 319 318 318 318 317 315 313 310 308 309 312 317 317 312 302 301 310 303 305 300 303 304 309 310 311 304 299 299 306 306 313 304 303 300 296 296 296 299 298 294 293 290 294 297 299 298 296 295 294 295 297 296 293 292 290 288 294 292 288 293 295 295 293 289 290 290 293 296 297 297 298 299 299 300 300 300 300 299 300 302 302 302 302
319 320 319 319 319 319 319 318 318 316 314 313 312 312 315 318 317 315 312 301 299 301 305 305 303 302 303 301 309 306 303 301 304 302 310 308 301 304 302 298 296 296 296 297 296 293 292 298 299 298 298 297 294 295 294 291 289 293 295 292 292 294 293 291 290 293 294 295 295 292 291 291 294 294 295 298 300 299 300 299 300 301 302 302 303 303 304 302
319 319 319 319 318 319 319 318 314 314 316 314 310 314 317 318 317 315 310 298 297 302 309 308 309 308 305 312 312 303 303 304 305 307 308 307 302 300 300 302 297 293 296 297 296 294 294 298 301 296 299 296 296 291 293 294 288 290 294 294 293 294 292 294 296 293 289 288 293 294 281 283 291 294 295 296 298 296 298 298 300 300 300 301 301 302 303 305
319 319 319 319 319 319 319 312 314 317 312 311 314 318 317 317 318 311 308 293 288 297 301 294 307 297 313 304 310 309 302 297 306 309 308 309 308 303 300 297 298 293 295 296 295 295 294 297 300 297 296 296 296 294 295 295 289 289 289 295 297 294 295 294 293 291 283 281 291 294 283 280 287 290 292 293 293 294 296 298 299 300 301 300 302 303 303 304
320 319 319 319 319 319 313 311 316 314 311 312 315 318 317 317 317 313 295 290 284 296 292 305 300 301 310 304 305 303 288 292 306 307 307 311 304 308 296 294 296 298 298 300 292 290 295 295 296 297 297 295 293 290 296 295 290 286 295 297 296 296 294 295 293 292 288 293 294 293 290 282 283 288 293 294 293 294 293 295 298 300 300 301 302 304 303 303
320 320 319 319 319 317 317 316 313 311 311 314 318 317 318 317 318 314 295 279 278 300 297 294 304 308 307 304 306 297 297 301 297 302 305 310 307 302 297 295 295 295 298 295 284 298 296 294 296 295 294 293 291 295 298 296 293 293 295 298 296 296 296 295 292 289 289 285 282 287 291 282 281 288 293 294 291 292 293 294 295 297 297 299 301 304 301 302
318 319 318 319 319 318 319 316 315 313 316 318 317 317 318 317 309 301 287 277 298 296 307 295 310 307 303 303 300 299 297 301 296 301 309 307 307 302 294 296 297 295 297 296 290 295 295 297 297 298 293 291 295 293 298 298 291 295 297 299 298 297 296 294 289 287 285 282 280 285 290 280 283 288 289 291 291 291 292 294 296 297 298 301 302 302 301 301
317 318 318 319 318 316 316 317 315 316 319 318 318 317 318 313 304 287 279 273 301 290 298 298 298 295 299 296 296 297 295 298 300 301 302 300 303 306 300 301 300 296 295 297 295 295 296 296 296 297 295 297 293 294 295 296 297 298 298 296 294 293 290 289 287 285 282 279 282 290 291 286 280 286 288 289 290 293 295 294 298 303 302 303 302 301 301 301
316 317 318 318 314 315 316 311 316 318 319 319 318 317 311 306 291 283 276 286 300 297 297 295 294 299 294 293 290 295 297 297 298 299 296 301 297 300 299 295 301 295 290 292 290 294 296 296 295 297 297 297 296 293 296 298 297 298 293 289 290 288 287 285 284 285 279 278 284 290 291 289 278 282 293 294 296 294 296 295 299 300 301 301 301 300 300 300
316 316 318 317 320 319 312 311 316 317 318 319 316 310 304 287 291 282 280 298 289 292 292 291 296 294 293 295 294 291 291 295 298 297 294 294 293 292 293 289 291 283 284 285 285 292 291 292 295 295 297 297 295 292 292 295 296 296 291 288 282 281 281 279 282 277 278 277 283 283 289 285 285 288 291 293 295 295 296 297 299 299 302 302 301 300 299 300
315 316 316 317 317 316 317 315 316 316 318 318 312 306 296 286 279 288 289 291 287 297 293 298 293 293 293 293 292 293 297 290 297 296 298 296 294 293 296 294 295 291 283 288 287 285 289 294 295 295 295 297 297 288 286 285 290 292 288 283 280 276 276 273 277 280 281 283 283 284 287 283 288 290 293 295 296 295 295 299 299 298 299 302 302 300 300 300
314 315 315 316 318 318 316 315 313 316 313 311 303 295 292 285 283 295 292 292 295 298 298 296 294 295 293 290 292 294 289 295 295 294 296 293 293 290 293 295 295 292 292 288 284 285 281 282 290 292 288 296 295 294 291 289 290 291 293 289 283 280 276 273 276 275 277 281 282 284 281 279 280 285 292 296 296 297 297 299 300 300 301 302 302 300 300 299
313 314 316 318 317 318 314 315 314 315 311 304 297 291 283 283 289 288 290 295 295 298 295 298 294 292 291 292 296 294 294 290 295 294 293 293 289 290 291 292 295 295 293 285 288 286 286 286 294 297 295 296 294 297 298 294 290 290 292 294 286 283 285 278 281 281 279 280 279 280 280 283 286 291 294 295 294 295 296 297 298 298 298 301 301 301 301 300
311 312 316 314 315 315 315 314 315 314 306 299 291 285 285 288 286 295 293 304 299 296 294 295 294 289 289 289 295 293 298 294 294 293 292 293 293 290 295 294 294 295 291 286 288 282 286 283 294 296 295 294 295 298 297 297 281 288 290 284 288 292 290 284 280 282 279 278 277 281 283 287 290 293 294 295 295 295 294 295 295 296 297 298 298 299 299 300
309 313 308 312 314 316 315 314 314 311 305 299 292 285 289 293 301 299 301 299 299 298 294 288 289 289 287 287 290 292 293 297 293 292 287 294 290 294 293 295 298 295 296 294 288 293 285 287 290 292 291 293 293 296 298 297 298 291 283 288 293 294 292 285 278 280 278 276 279 280 280 283 281 281 290 290 291 291 293 294 296 297 295 295 297 299 300 300
308 308 309 310 314 315 314 313 312 308 302 296 287 290 295 292 302 302 306 303 301 299 294 292 292 294 289 289 289 291 294 290 291 291 288 292 287 297 295 294 298 297 297 298 290 291 292 282 287 291 292 294 297 296 295 297 296 292 288 297 289 280 280 283 280 275 273 273 275 279 281 282 284 286 288 288 290 291 293 294 294 295 295 296 297 299 299 300
307 306 301 309 316 316 313 313 310 304 298 290 287 287 292 294 302 300 303 305 304 300 293 294 292 294 294 290 292 293 293 286 292 289 286 289 285 295 295 297 296 298 298 298 292 292 292 283 285 288 291 293 293 292 285 287 294 296 296 292 296 288 282 281 282 281 280 275 274 277 278 279 287 288 288 289 291 292 294 293 294 295 296 297 299 299 299 299
303 300 298 313 316 315 313 311 305 300 295 287 287 288 296 293 298 302 304 302 299 297 295 294 296 293 294 294 295 290 293 291 291 290 290 292 290 297 294 298 296 297 298 298 295 296 287 288 280 285 289 291 283 289 286 289 286 285 285 284 288 285 288 285 285 282 279 275 275 275 276 281 287 291 291 292 293 294 294 294 295 296 296 298 298 300 301 300
305 299 300 315 315 314 312 306 298 292 291 295 295 293 296 294 298 301 302 304 301 302 299 296 297 293 295 293 293 297 292 292 293 291 290 292 291 287 297 298 298 296 297 296 294 293 285 283 282 282 282 283 286 293 292 293 293 290 289 287 289 285 282 279 279 288 283 281 276 277 276 283 292 294 295 292 293 297 299 296 298 298 298 303 302 302 303 301
299 291 296 313 315 313 305 295 294 298 295 292 290 295 295 301 298 299 301 301 300 298 301 298 298 296 294 295 296 293 292 291 292 292 292 290 295 294 298 301 299 300 296 289 291 296 292 288 284 281 283 287 290 294 295 294 295 293 291 288 291 290 286 281 277 278 283 282 284 281 279 283 294 294 293 295 296 298 299 297 297 300 300 301 301 300 300 300
295 293 308 312 314 310 301 293 296 294 292 296 301 298 301 299 298 300 298 299 296 299 297 296 296 295 296 296 297 294 294 289 290 291 293 293 295 297 301 301 304 299 298 291 295 295 295 286 283 282 288 290 291 294 295 294 294 291 292 292 289 287 288 286 282 282 281 281 281 280 279 284 293 294 296 296 295 295 297 297 299 298 300 299 299 299 298 299
295 295 300 310 313 309 297 288 288 291 293 297 298 297 300 299 298 297 297 298 296 296 295 295 297 298 296 298 296 291 297 287 293 291 288 294 293 302 301 301 302 296 295 293 290 295 287 286 286 281 280 283 285 289 288 291 291 286 285 291 292 292 290 288 285 287 283 283 283 281 277 283 290 292 294 294 295 296 296 295 297 296 297 299 299 299 299 298
295 297 297 304 309 306 292 295 293 292 292 293 293 292 295 296 300 299 299 297 299 298 296 295 297 298 296 297 294 295 296 292 287 293 294 293 294 300 299 298 300 294 296 296 297 300 291 288 286 281 278 276 275 277 278 281 284 286 288 290 293 291 290 286 283 283 281 283 284 282 282 288 292 293 294 294 294 293 295 295 296 296 297 299 300 299 299 298
292 284 292 295 302 301 299 301 298 294 292 292 291 293 295 293 298 300 300 298 300 299 298 299 298 299 295 295 293 292 292 296 292 289 292 290 294 295 296 297 296 295 294 295 295 296 287 287 288 287 285 283 284 285 290 290 285 283 285 288 289 292 292 290 285 283 282 285 284 285 286 288 290 291 291 293 293 294 295 296 296 296 295 295 296 298 298 298
297 287 289 286 296 296 294 296 294 295 291 295 288 292 291 293 295 297 301 295 299 299 298 298 297 294 293 294 292 292 294 293 294 292 292 293 295 294 296 295 295 293 294 293 294 290 287 286 288 288 287 288 290 290 293 291 287 288 286 286 289 290 290 288 286 285 289 284 282 288 289 286 289 292 293 293 293 293 294 295 295 295 297 298 298 297 297 297
285 290 294 295 289 285 287 289 294 293 294 295 291 294 291 291 292 290 296 299 300 300 295 296 297 296 296 294 294 289 292 292 292 289 294 294 293 294 292 295 293 293 292 291 294 291 286 285 289 289 288 289 290 290 293 294 292 291 289 288 287 289 288 287 288 290 289 285 283 288 289 287 290 293 294 293 295 296 297 297 297 297 296 295 297 297 298 298
293 294 293 299 289 290 290 291 293 292 292 293 292 292 290 290 290 294 294 294 296 295 297 289 293 295 296 297 295 290 292 287 287 292 290 289 291 290 289 291 292 291 293 287 288 289 288 286 287 287 287 288 289 290 290 290 290 290 292 293 291 289 289 289 289 291 290 288 290 290 290 290 292 294 295 294 296 296 296 297 298 297 297 297 297 297 297 297
288 288 287 294 294 293 292 291 292 290 288 292 288 290 292 291 290 293 295 294 289 293 298 293 293 295 296 296 295 291 293 294 293 289 293 292 289 290 288 291 286 287 289 288 290 291 290 285 290 286 285 286 288 289 288 289 289 288 291 292 293 293 291 291 290 290 290 290 291 291 290 289 295 296 296 297 298 299 298 297 298 299 298 296 297 298 298 298
293 296 295 290 287 289 291 291 291 290 287 288 288 290 291 291 291 294 293 297 294 292 294 292 295 295 296 296 294 294 297 296 296 296 296 295 290 294 292 288 293 286 287 287 287 289 290 285 286 285 283 284 288 287 288 288 288 287 287 289 290 290 288 290 289 291 289 288 289 289 287 288 294 296 296 297 297 297 297 298 298 299 298 297 298 298 298 298
294 295 295 293 285 290 288 290 291 290 285 289 289 289 290 291 293 294 290 295 297 298 297 296 296 295 293 293 293 295 298 298 299 300 300 299 299 296 297 296 295 289 287 287 288 287 287 286 284 285 282 283 285 285 286 286 286 283 285 288 290 291 291 293 294 294 293 293 288 286 288 294 295 296 294 295 296 297 297 298 298 299 299 299 299 299 300 300
Wind_Speed
6 6 5 4 3 2 2 1 2 2 3 4 4 5 5 6 7 7 7 8 8 8 8 9 9 9 9 9 9 9 9 2 3 4 6 1 0 1 2 3 5 6 6 5 4 3 3 3 4 2 3 1 0 0 1 0 0 0 0 1 3 5 0 2 1 2 7 5 4 5 5 5 4 2 1 0 1 0 4 1 4 5 6 7 7 9 8 7
7 7 5 4 2 3 1 1 2 3 4 4 4 4 5 6 7 7 8 8 8 8 8 9 9 9 10 10 9 8 5 2 4 6 1 1 1 1 4 4 4 4 5 2 3 4 6 4 2 3 3 2 1 1 1 1 0 1 1 2 4 2 1 4 4 8 3 5 6 5 4 3 5 7 3 2 3 3 3 3 5 5 6 5 6 9 8 8
6 6 4 4 3 1 0 1 2 2 2 4 4 5 6 7 7 8 8 8 8 8 9 9 9 10 10 10 10 9 3 2 3 5 2 2 2 4 4 4 4 2 1 3 4 6 5 6 3 3 3 2 2 2 1 1 0 1 1 3 0 1 4 6 7 4 4 2 7 4 3 1 5 4 3 2 4 7 6 5 5 7 6 8 7 7 8 8
7 6 4 4 4 1 2 1 1 1 2 3 4 6 6 7 8 8 9 9 9 9 9 9 10 10 10 10 10 7 2 1 3 4 2 3 4 4 4 4 4 4 4 6 6 5 3 5 1 4 1 2 2 2 2 2 1 1 1 0 1 3 1 4 5 5 3 4 2 4 2 0 2 2 4 4 3 4 6 6 7 9 11 12 10 9 8 8
7 7 4 4 3 2 2 1 1 2 3 3 6 7 8 8 8 9 9 10 10 9 9 9 10 10 10 9 11 3 1 2 1 2 3 3 4 4 3 4 4 3 4 5 5 4 4 4 2 3 1 1 3 1 1 2 1 0 1 3 2 5 3 3 4 5 4 3 1 5 4 2 3 3 3 3 4 2 0 0 0 1 6 14 12 9 7 8
5 3 4 4 3 4 2 1 1 3 4 5 6 8 8 9 9 9 10 10 10 9 9 9 10 10 10 9 5 2 1 2 0 1 2 3 3 3 3 5 5 3 4 4 3 0 2 3 3 2 1 2 4 3 3 2 1 1 1 3 4 1 2 1 2 3 4 1 2 3 1 3 1 2 4 4 5 2 3 5 6 4 12 13 12 11 9 9
5 5 6 4 4 4 2 2 3 4 5 5 6 7 8 9 9 9 9 10 10 9 9 8 9 11 12 8 3 2 3 1 0 1 2 3 4 2 3 4 5 3 2 3 4 2 3 3 3 4 3 1 5 2 2 3 1 0 1 2 3 3 4 3 2 2 2 6 3 2 2 0 3 2 1 5 5 2 5 7 8 7 9 12 12 10 12 11
7 7 5 4 2 2 3 2 2 4 5 6 6 7 7 8 9 9 9 9 9 9 8 8 9 9 10 2 1 2 2 1 3 3 1 1 4 1 2 2 3 2 3 3 3 3 2 4 5 1 2 0 3 3 2 3 3 2 2 2 1 2 2 3 1 1 1 1 2 4 2 2 1 0 4 3 3 4 4 6 6 6 5 7 10 10 9 8
8 8 7 5 4 4 4 3 3 4 5 5 6 7 7 7 8 8 9 9 9 9 8 8 8 9 4 2 3 3 3 1 4 3 3 4 4 3 1 1 4 2 2 2 1 4 2 3 4 1 1 3 0 4 2 2 2 1 3 4 3 3 3 2 3 1 0 1 1 1 2 1 3 1 4 7 5 5 5 5 6 6 6 5 8 9 8 9
8 8 7 5 4 4 4 3 3 4 5 5 6 7 7 8 8 8 9 10 9 9 8 8 8 8 3 2 2 3 1 6 3 0 3 2 5 5 4 2 3 3 3 1 2 2 1 3 3 1 1 3 0 2 1 3 0 1 3 3 4 4 3 2 1 2 1 1 1 1 3 1 1 4 6 3 6 7 4 6 5 6 5 6 5 7 8 9
7 8 7 6 5 4 3 4 3 4 4 5 6 7 7 8 8 8 9 10 10 8 8 8 8 7 2 3 2 3 1 3 2 1 2 2 4 3 2 4 3 3 3 2 3 2 3 4 3 1 2 1 3 2 2 0 1 2 4 4 4 3 2 1 1 4 2 1 0 1 4 2 4 1 9 2 1 3 6 5 5 5 5 5 7 6 6 7
9 8 7 6 5 5 4 3 3 3 4 5 6 7 8 8 8 8 9 9 10 7 8 7 8 3 3 3 4 1 3 2 2 2 0 2 1 1 2 2 2 3 4 1 2 3 3 3 4 1 0 1 2 3 1 2 1 2 3 3 4 4 3 4 3 4 3 1 1 0 3 6 4 6 15 5 4 4 4 4 5 5 5 5 5 6 6 7
9 8 7 6 5 4 3 3 3 4 4 6 7 8 8 8 8 8 9 9 7 9 8 6 6 3 2 2 1 1 1 1 0 4 1 0 2 1 1 0 2 2 3 1 2 1 2 2 2 0 2 2 3 1 2 2 1 1 1 2 4 3 3 7 3 4 2 2 2 2 1 6 10 17 8 6 6 4 4 4 5 5 5 5 5 5 6 5
9 9 7 6 5 4 3 3 3 4 5 6 7 8 9 9 9 9 8 8 9 9 6 6 2 3 1 1 1 1 2 2 1 3 1 0 2 1 1 0 2 3 4 5 2 1 2 1 2 3 1 4 1 2 2 1 1 1 3 1 2 3 2 8 3 5 3 1 1 0 1 8 4 5 2 4 6 6 5 5 5 5 5 5 5 5 6 6
9 8 8 5 5 4 3 4 4 5 6 7 8 9 9 10 10 9 9 8 8 6 6 4 3 1 2 2 1 1 2 4 2 2 2 3 2 2 2 2 4 4 3 3 1 1 1 2 2 1 2 1 4 2 3 2 2 1 2 3 2 2 1 2 3 7 4 1 3 2 3 7 10 3 1 2 3 2 4 4 5 5 5 6 6 6 6 7
8 9 7 6 5 4 5 4 6 6 7 8 10 10 10 11 10 10 9 8 10 7 3 2 3 1 2 3 1 2 1 2 3 1 1 2 3 1 4 3 2 2 1 2 1 1 1 1 2 1 2 1 2 2 4 2 1 2 3 1 3 3 3 1 2 2 3 4 1 6 4 4 1 4 3 4 6 5 4 4 5 5 5 5 6 7 6 6
9 9 8 7 6 5 4 5 5 6 8 9 11 11 10 9 9 8 9 7 4 4 2 2 1 2 2 1 2 2 3 2 1 0 1 1 2 2 3 3 1 2 1 1 0 2 1 1 1 1 0 2 3 3 2 2 1 3 3 4 1 4 4 2 2 1 1 2 2 4 4 7 8 3 3 3 4 5 5 6 6 6 5 5 5 6 7 7
9 9 8 7 7 6 5 3 5 6 8 11 11 10 8 9 8 8 5 3 3 2 4 3 2 1 2 2 2 4 3 4 2 1 2 2 1 4 0 1 2 3 2 2 0 0 1 1 0 1 3 2 3 3 3 3 5 4 5 3 4 0 3 1 3 4 3 0 2 3 8 10 9 11 8 6 7 6 7 7 7 6 6 5 6 6 8 8
9 9 8 9 8 6 5 5 5 6 9 13 16 13 10 8 4 4 2 2 3 1 1 3 3 5 1 5 5 5 3 1 3 0 2 1 0 1 0 0 2 4 2 2 1 1 0 2 1 3 4 4 5 4 5 2 4 5 3 1 2 3 3 3 3 2 2 3 4 6 8 7 8 10 9 8 7 9 9 8 7 7 7 7 7 7 7 8
8 8 7 7 6 6 6 4 5 5 8 8 5 2 1 1 1 2 2 3 5 1 2 3 7 5 4 5 4 1 3 3 2 2 3 2 0 1 2 3 1 2 1 2 2 0 1 2 3 3 4 5 4 5 3 4 4 3 1 1 2 4 2 3 3 2 0 1 5 8 9 9 9 8 8 7 6 6 6 6 6 6 8 8 8 9 10 9
9 9 7 7 5 5 4 4 5 5 4 5 6 2 3 3 4 4 4 3 3 2 1 3 4 4 4 4 3 6 6 1 1 3 1 1 3 2 2 2 2 2 3 1 3 0 1 1 3 4 5 1 1 4 3 2 4 2 2 3 5 1 2 2 2 1 3 1 2 4 6 9 8 6 6 6 6 10 10 9 9 10 9 8 9 10 11 9
10 10 8 8 6 5 4 3 4 4 6 4 4 3 2 2 1 1 1 3 3 2 3 2 3 4 1 4 1 2 3 4 1 4 1 0 2 3 4 3 5 4 4 4 4 1 1 4 4 5 2 4 4 4 5 4 3 2 0 2 1 3 2 3 3 1 1 1 6 4 5 11 9 7 6 7 9 11 11 11 11 8 8 8 8 10 9 6
10 9 9 8 7 6 4 3 3 2 4 2 2 3 1 1 1 1 1 2 2 1 2 2 1 4 2 1 1 1 2 4 5 5 4 2 4 2 6 4 5 3 5 6 3 3 2 4 9 1 4 5 3 4 2 0 0 1 1 1 3 1 1 2 0 1 2 2 3 4 6 12 14 9 13 15 14 14 13 9 7 7 9 8 10 10 7 8
10 9 8 8 7 5 4 2 2 4 3 3 4 2 3 0 1 2 1 1 1 2 0 1 1 2 5 3 3 3 3 1 4 7 4 3 7 2 1 7 5 5 5 6 6 5 5 1 1 5 3 1 2 1 1 2 2 4 4 2 3 2 2 2 1 3 3 2 3 5 7 8 10 9 4 8 13 11 12 8 7 8 8 8 6 5 6 7
10 9 9 8 7 5 4 3 2 2 1 1 2 3 1 2 0 1 1 2 1 1 4 1 2 2 2 2 3 3 0 1 2 5 5 5 4 3 3 3 3 5 4 5 5 5 6 1 1 4 2 0 1 2 4 2 3 2 6 9 6 2 5 2 2 4 2 2 1 1 6 5 1 3 6 2 1 5 6 6 8 10 8 6 7 8 6 6
9 10 10 10 9 7 6 2 3 2 2 1 2 2 2 3 1 1 1 1 3 2 2 4 3 3 2 3 3 1 3 2 3 1 7 0 3 1 2 2 1 3 6 5 5 3 1 1 0 4 4 3 1 2 4 4 2 0 2 4 3 3 2 3 3 1 2 1 1 1 0 9 4 9 8 8 8 9 4 6 10 9 7 6 8 7 7 7
9 10 10 11 11 10 3 2 3 4 2 2 2 2 1 2 1 1 1 1 4 4 6 1 1 1 2 5 5 3 2 4 0 3 2 3 1 1 2 3 2 0 2 0 4 2 3 2 4 1 4 4 3 3 1 5 2 2 1 2 1 0 1 1 1 0 3 1 3 6 5 6 10 8 7 12 15 14 7 8 10 10 7 7 7 6 5 5
8 9 11 12 13 13 3 0 3 2 2 1 0 1 1 1 0 1 1 1 3 5 3 3 1 2 1 6 6 5 2 8 4 2 4 0 0 1 1 3 7 4 1 3 6 1 2 5 5 3 2 3 5 1 5 5 3 1 1 3 2 3 4 0 1 1 2 4 7 4 2 3 6 3 7 10 10 10 9 8 10 9 6 5 5 5 5 5
2 9 12 13 14 15 2 4 3 1 1 0 1 0 1 1 1 0 2 2 1 2 4 6 3 1 3 3 5 4 2 1 1 2 1 2 3 0 4 5 2 4 6 5 5 1 3 0 1 4 5 5 3 2 3 5 4 1 2 2 3 3 2 2 1 2 3 2 9 5 4 3 15 4 4 7 6 8 7 8 11 8 5 6 6 4 5 3
7 2 12 13 10 8 4 3 2 1 1 1 1 1 1 1 1 1 4 6 3 2 2 1 1 8 6 9 5 3 3 1 3 2 2 2 1 0 1 0 1 2 4 5 4 2 1 3 5 1 2 1 4 3 3 4 3 5 2 5 2 2 1 1 1 1 2 2 11 8 10 5 8 2 8 7 6 8 9 4 1 4 5 4 4 5 4 4
8 6 13 15 6 4 3 3 3 1 1 2 1 1 1 0 2 4 4 4 4 2 1 2 3 9 10 12 7 3 2 3 3 6 3 1 2 2 1 1 2 2 5 2 2 3 1 1 0 0 1 4 4 4 5 1 2 3 1 2 2 1 2 1 0 1 1 9 3 4 10 8 5 5 2 2 1 4 1 2 2 4 4 3 3 4 5 4
9 7 5 11 4 6 9 3 5 2 2 1 2 1 0 2 4 6 4 4 2 5 6 4 4 7 12 6 4 9 8 5 5 7 8 6 5 7 7 7 5 2 3 5 4 2 3 4 2 3 5 3 3 6 4 3 1 0 2 3 5 1 2 2 1 2 5 7 1 3 2 3 15 9 1 0 1 1 2 4 1 2 4 4 5 5 5 5
10 5 3 9 5 5 2 2 3 6 3 1 1 3 1 3 7 7 4 6 2 3 2 6 10 10 9 7 5 6 4 6 5 4 5 3 6 7 7 8 9 9 5 5 5 2 2 2 5 3 3 4 4 8 3 1 3 4 6 7 5 3 3 4 4 2 2 2 2 1 3 5 9 7 6 13 9 4 4 2 3 4 6 7 6 5 5 5
8 7 1 4 5 2 3 3 4 6 7 4 7 6 4 4 6 9 9 5 1 2 5 2 10 7 13 10 7 8 3 3 9 5 6 5 5 6 6 10 6 6 2 1 7 7 4 4 6 6 3 6 5 7 11 7 9 9 4 8 8 6 3 4 4 6 6 5 0 4 2 8 1 3 2 1 1 4 3 1 0 1 3 1 4 5 5 6
9 6 4 2 6 3 6 4 4 4 8 9 6 5 7 9 5 6 9 3 0 3 4 5 6 6 6 4 2 11 2 4 7 7 6 7 8 7 8 9 11 5 3 4 4 2 10 6 2 15 2 13 12 5 6 5 3 4 4 1 3 9 1 4 1 0 1 2 2 1 6 2 5 3 6 4 4 6 4 3 6 7 5 3 2 6 7 7
4 2 2 2 3 5 7 5 5 5 9 8 6 5 10 9 5 3 2 1 2 3 8 7 4 6 5 5 2 6 6 2 5 4 4 8 6 8 7 5 11 16 8 10 3 3 2 4 2 3 5 16 13 6 4 9 5 5 3 7 8 1 2 0 2 1 2 2 9 3 6 8 4 13 13 12 13 12 7 5 5 7 6 2 5 7 7 6
3 1 3 3 4 7 8 7 6 6 6 7 7 8 7 3 2 2 2 2 1 10 7 8 5 6 7 6 4 5 2 4 4 5 5 3 5 7 7 8 9 12 13 9 3 2 5 3 2 2 4 1 3 1 0 1 1 6 5 6 2 3 2 3 5 1 2 8 8 3 8 12 1 13 3 2 8 7 7 7 7 7 6 6 8 8 9 8
4 3 4 5 5 9 8 8 8 6 7 5 5 2 1 6 2 3 2 2 2 6 3 6 3 8 6 8 8 9 5 7 7 5 4 9 4 7 11 5 10 12 16 10 5 2 3 5 2 1 3 2 3 1 1 1 4 3 4 1 6 2 3 3 2 6 5 5 4 5 8 10 9 16 6 6 2 4 7 8 7 8 7 8 7 9 8 1
5 3 3 6 8 10 9 9 7 8 3 4 6 6 4 7 0 5 1 4 2 1 8 7 4 6 6 8 4 8 10 8 10 9 5 4 5 7 13 9 4 11 10 11 8 3 2 5 1 2 2 0 1 3 9 6 2 1 2 1 1 2 3 6 7 1 2 7 4 10 5 8 8 8 5 5 5 7 9 8 9 10 9 6 7 9 5 5
4 3 5 7 11 11 11 9 5 4 3 7 6 4 4 7 5 5 4 2 1 2 4 3 7 4 8 7 7 7 9 10 11 8 8 4 7 4 8 12 5 7 10 12 8 5 3 4 5 0 5 2 2 5 9 9 8 1 0 2 1 1 1 3 2 5 6 4 6 5 9 7 9 5 7 9 9 9 10 10 8 8 8 8 6 3 4 5
3 2 1 8 12 12 11 6 5 7 4 1 3 5 7 5 6 6 9 4 1 3 1 4 3 3 1 7 9 5 5 8 8 7 6 5 10 2 5 9 7 6 6 7 8 5 2 4 7 3 0 5 6 7 9 10 15 13 13 12 13 8 4 4 9 1 1 4 3 4 11 8 13 2 5 4 3 1 1 4 3 4 2 1 2 1 1 3
4 5 3 9 12 15 9 6 3 3 2 7 7 7 7 4 4 6 5 2 1 2 0 1 1 1 2 2 1 2 2 9 8 6 5 7 6 8 4 5 9 9 10 7 11 9 7 3 4 6 9 11 8 1 3 1 3 6 9 10 11 8 6 5 8 4 0 3 1 2 4 14 13 1 4 4 0 1 2 2 0 2 0 1 1 1 1 0
3 6 5 12 13 13 10 6 5 5 5 5 3 5 3 4 6 7 8 4 4 4 2 2 4 0 1 2 1 2 2 0 2 6 1 8 1 4 5 7 4 10 6 1 4 2 4 2 2 4 1 3 3 1 0 3 2 1 5 4 3 8 8 7 4 4 5 2 4 3 8 13 10 2 2 3 1 2 1 0 2 2 1 1 2 1 3 1
4 5 2 3 10 8 10 9 9 9 8 4 8 6 7 5 7 6 8 10 8 5 8 5 2 4 2 1 0 1 1 0 0 1 1 2 1 3 8 8 9 1 3 1 3 4 5 2 6 2 1 0 0 1 2 2 1 1 2 3 3 3 5 5 4 0 4 7 9 7 13 12 7 2 1 1 1 1 5 4 2 4 5 4 3 3 3 4
4 3 4 4 6 8 10 6 8 9 10 10 7 10 7 5 6 10 11 9 7 4 5 7 9 7 5 3 3 2 1 1 3 3 1 2 0 1 6 7 8 3 4 3 2 1 4 3 8 8 10 11 8 7 6 3 6 3 2 5 10 11 6 5 8 4 9 7 11 8 10 12 9 2 1 0 1 3 3 2 2 3 4 3 2 3 3 4
4 4 5 5 4 7 8 5 3 6 9 11 12 10 10 8 4 8 11 8 12 7 9 4 6 7 6 6 5 7 10 7 6 2 0 1 2 3 1 5 6 3 4 6 10 3 1 1 5 10 12 13 9 2 1 8 4 6 7 11 9 9 12 8 3 5 13 12 13 10 12 16 18 11 2 2 2 3 3 1 2 4 4 4 4 5 4 4
3 5 6 6 4 6 6 7 8 5 5 7 7 5 12 13 5 4 9 5 8 9 6 7 6 10 5 9 9 10 11 9 11 10 9 6 0 2 2 4 4 5 5 4 8 3 2 1 5 5 9 11 6 3 2 11 7 11 10 9 12 10 10 12 11 15 13 6 14 12 14 12 21 20 11 10 5 4 4 3 3 3 5 6 7 5 7 5
7 4 6 4 5 6 10 10 12 11 10 7 5 5 8 11 11 8 4 7 7 11 6 3 8 12 12 15 10 8 9 10 10 10 11 7 3 1 1 2 2 4 3 1 2 3 3 3 4 4 6 8 8 5 4 1 4 4 10 10 10 13 10 13 17 19 13 12 16 13 8 13 20 20 11 5 8 12 9 8 6 5 4 4 4 5 7 9
6 3 3 3 6 6 11 9 11 12 13 12 5 7 8 11 13 11 6 8 8 7 12 7 12 14 12 11 11 8 9 8 9 11 7 5 9 3 1 0 0 4 2 2 4 0 3 5 2 1 5 10 11 7 4 7 6 6 5 4 6 11 15 17 17 17 18 15 13 15 17 19 16 18 11 4 7 5 5 7 9 8 7 7 6 7 8 9
8 7 2 3 1 6 2 6 7 8 11 11 9 8 7 9 11 9 8 10 7 9 10 14 10 13 13 13 13 11 10 12 10 12 8 8 3 5 4 5 2 2 2 2 2 2 4 3 1 1 4 12 14 8 5 8 7 9 8 9 9 8 12 16 15 14 14 15 17 19 19 19 17 14 9 9 12 9 9 11 12 12 8 5 6 9 10 10
5 1 2 3 4 7 7 4 8 10 8 8 10 10 8 10 11 8 7 9 12 8 11 16 13 9 11 13 12 13 9 9 9 10 9 12 9 9 8 3 8 5 2 2 1 1 3 2 3 2 3 6 10 10 9 8 9 10 11 12 13 16 16 9 9 9 12 15 16 13 14 17 19 9 7 14 11 10 13 14 13 9 6 6 8 9 9 8
7 7 5 3 5 4 7 3 4 6 10 10 9 12 9 13 11 6 6 5 9 8 9 14 13 9 8 13 15 16 14 9 6 2 1 8 5 2 9 4 11 10 7 6 3 6 5 5 5 3 5 8 4 3 5 4 4 9 13 20 21 15 11 11 13 13 16 13 10 10 15 14 16 12 8 11 12 12 13 13 12 12 10 9 10 10 11 12
Wind_Direction
164 163 154 154 172 180 216 336 325 334 343 339 342 344 346 356 6 5 7 4 358 354 349 348 351 345 340 337 337 339 333 288 216 214 216 50 282 62 33 349 351 332 346 312 264 244 250 213 206 164 201 191 76 85 246 90 356 312 228 187 277 241 165 162 100 117 162 126 150 168 182 138 130 159 110 50 94 229 120 181 100 66 58 101 113 119 115 121
168 161 156 149 163 175 110 349 327 331 335 346 357 347 358 5 9 6 6 4 359 350 348 347 344 344 340 335 335 333 323 259 255 234 188 84 193 44 28 9 343 342 310 250 228 217 251 163 190 187 202 184 210 101 252 116 294 166 237 178 246 4 1 345 71 38 35 108 157 167 197 195 160 151 167 157 188 188 161 197 150 129 105 98 121 122 136 143
172 164 165 163 143 165 145 305 309 307 337 357 355 1 358 5 6 4 4 4 357 351 346 344 344 339 340 336 328 320 292 239 258 234 118 253 58 40 21 3 324 327 286 314 303 304 299 321 138 221 231 138 251 140 250 129 154 247 51 242 163 13 65 31 48 71 53 348 130 146 185 233 130 142 134 219 182 170 202 185 178 176 171 160 152 150 144 157
179 168 178 165 162 186 256 220 308 323 356 359 3 352 355 1 3 5 1 358 356 350 346 343 339 339 335 330 327 314 268 293 241 104 94 27 36 24 9 332 321 293 252 254 254 281 307 285 249 233 190 269 115 80 167 163 121 30 82 250 6 318 57 20 45 37 25 17 97 132 83 223 151 120 167 196 280 200 205 208 172 197 180 169 158 156 154 160
179 178 181 184 172 226 226 262 17 349 330 343 4 352 350 354 359 2 1 356 352 350 346 339 338 334 332 328 317 288 293 278 145 46 23 353 12 16 338 319 306 293 250 278 289 256 255 250 217 248 257 177 124 123 202 105 344 147 193 83 5 357 69 2 66 26 356 291 16 96 132 207 89 75 193 216 191 229 217 294 217 148 164 147 157 160 160 165
125 168 194 190 196 217 212 255 343 322 325 344 343 345 344 348 352 359 357 354 351 348 343 342 334 332 329 323 308 255 291 205 274 100 306 353 351 341 318 302 304 281 281 257 263 204 268 242 207 223 209 237 148 183 133 98 115 220 114 86 47 10 89 8 67 5 336 353 117 157 26 64 129 177 196 236 225 131 143 101 72 58 127 151 144 149 169 169
135 203 204 194 211 218 210 269 295 316 330 329 324 333 334 339 345 350 351 348 345 345 343 340 335 330 328 309 235 253 235 6 124 192 140 327 315 272 296 278 268 288 281 276 236 226 221 234 225 191 224 235 162 152 118 126 188 355 87 127 44 26 74 22 82 352 6 7 46 8 268 307 125 248 139 205 226 180 107 107 104 90 108 130 145 165 172 179
165 205 189 188 181 223 231 251 285 296 315 313 315 320 323 328 338 341 342 342 341 339 343 338 332 332 343 276 170 197 206 143 64 174 136 292 297 332 259 263 269 286 273 264 312 243 180 247 201 253 269 302 167 138 173 139 199 197 172 109 122 88 92 81 109 97 21 41 7 8 7 257 44 270 11 258 232 248 141 123 117 114 122 146 148 167 174 178
171 191 179 168 188 224 237 276 292 298 300 305 309 311 318 321 327 335 334 337 337 337 338 337 333 331 309 285 234 274 201 41 334 338 31 9 333 289 160 311 182 238 280 273 285 314 335 219 265 135 329 132 223 107 211 186 182 217 76 110 130 98 117 138 111 107 191 80 11 339 252 233 103 175 261 248 239 217 172 130 135 136 136 172 166 172 172 181
182 183 190 179 198 216 233 243 273 287 300 306 307 309 312 317 326 327 326 333 334 333 333 332 337 331 310 219 209 255 145 257 292 23 42 5 309 292 236 320 342 306 252 124 273 285 238 348 11 16 18 48 252 68 53 34 119 343 135 108 119 133 123 252 156 120 119 51 132 273 273 142 316 104 273 240 236 208 176 149 153 152 170 177 183 177 181 181
177 189 192 188 202 208 223 242 262 292 302 313 315 312 315 320 321 320 324 325 330 327 330 332 336 326 241 234 254 217 238 281 331 353 49 281 302 348 25 349 347 321 302 142 26 28 341 318 341 343 29 131 93 90 20 90 300 125 100 92 96 155 132 151 182 131 141 101 254 284 288 311 153 154 240 199 308 121 152 182 172 173 190 193 190 187 187 188
178 180 175 181 195 204 218 239 263 285 308 325 324 321 319 316 317 316 317 322 315 327 326 325 329 301 268 268 239 359 266 10 307 314 115 328 54 195 317 336 311 316 347 309 79 34 352 339 332 33 280 127 122 104 85 222 249 127 176 155 165 151 168 178 178 169 204 104 242 59 295 265 186 221 239 195 146 151 177 189 205 194 200 212 205 184 184 194
181 178 182 177 185 206 205 222 256 285 307 316 321 321 321 317 312 313 310 313 316 313 314 325 318 246 307 212 63 246 309 329 349 276 106 138 157 229 175 266 286 5 340 16 99 10 335 313 352 262 46 301 96 136 154 256 91 146 246 301 147 183 228 187 170 124 162 112 175 73 340 253 221 222 238 156 147 146 168 202 192 194 198 199 199 191 182 186
187 190 195 168 183 208 220 238 264 286 307 314 316 319 317 314 307 300 300 297 301 294 307 315 320 264 255 43 124 90 319 328 269 253 69 290 242 330 168 189 37 51 46 83 71 264 298 305 306 99 64 30 143 258 140 113 115 180 186 178 235 142 275 156 151 153 169 92 180 43 226 288 324 21 101 137 147 152 193 207 219 214 203 192 190 191 189 199
190 185 201 192 191 197 220 232 264 298 303 308 313 311 310 303 298 291 288 291 277 293 306 307 219 226 212 83 224 144 307 274 257 88 35 350 152 147 123 84 55 56 55 69 101 258 277 333 347 127 45 310 84 128 142 148 201 249 86 269 263 221 76 152 99 155 183 250 218 174 262 256 273 187 161 97 105 178 216 231 230 226 211 187 183 191 200 209
175 182 187 196 204 215 228 262 276 286 303 307 309 305 294 289 285 283 279 270 278 284 266 246 169 274 309 196 101 316 269 205 129 41 73 269 358 115 106 100 138 117 120 26 337 299 254 7 52 46 122 343 219 195 175 128 216 236 178 261 184 203 156 185 251 105 50 111 249 183 236 308 254 168 163 180 163 167 207 239 240 236 224 205 185 187 202 210
171 174 183 187 205 228 242 247 260 277 287 305 305 292 282 274 279 283 277 279 272 193 222 321 151 149 257 17 315 223 173 67 252 178 338 37 327 133 126 150 112 91 52 208 322 297 16 65 267 4 316 198 201 224 165 208 234 213 176 228 272 171 165 200 25 275 155 196 187 233 255 250 272 257 178 233 186 178 198 216 227 230 220 213 201 193 197 202
171 176 183 189 207 213 234 263 280 290 308 308 295 283 285 287 296 304 250 236 223 209 226 209 266 184 217 355 205 144 70 109 79 82 349 335 301 304 21 154 117 139 183 120 17 155 81 73 32 207 155 253 221 227 149 200 205 196 183 210 262 190 273 207 160 171 147 211 288 218 220 249 268 284 273 210 200 190 204 211 216 220 223 223 213 211 212 207
175 180 181 194 207 221 233 253 278 305 317 311 290 270 268 280 268 244 245 159 159 82 171 183 186 192 217 164 104 91 47 184 128 329 179 244 279 319 289 343 196 151 172 201 163 223 161 64 102 315 169 207 219 208 182 272 39 25 26 176 237 212 220 215 71 154 193 165 214 240 247 247 241 250 254 255 215 199 215 219 223 225 228 233 236 235 230 220
179 185 188 199 206 216 235 251 274 307 332 320 319 239 203 181 183 154 180 198 255 49 351 126 190 96 119 105 91 346 202 228 127 13 77 352 106 233 213 198 71 330 197 184 150 228 41 148 178 203 217 193 211 221 218 66 28 9 340 4 341 359 21 80 85 38 13 344 245 234 247 252 255 255 265 271 276 266 258 252 237 221 220 220 225 233 235 232
183 186 190 200 204 225 242 271 294 311 320 304 307 271 186 184 175 165 163 220 216 126 72 72 36 55 83 99 132 162 123 58 300 147 165 21 318 189 161 181 132 218 236 260 119 46 32 239 235 223 232 340 233 177 78 78 29 38 30 3 323 93 315 62 135 189 23 76 290 295 290 274 266 263 265 270 276 265 250 248 244 240 230 218 220 234 235 236
187 188 182 193 202 215 235 257 294 323 289 274 293 296 22 44 334 93 309 173 201 119 130 93 220 92 347 111 141 5 325 123 154 121 147 190 179 177 157 209 170 201 166 75 74 58 106 191 239 229 99 95 54 43 58 39 3 72 7 349 12 294 114 63 62 333 157 113 258 277 295 283 273 262 260 250 243 250 240 230 236 234 237 227 223 231 235 229
189 189 187 184 194 209 222 240 299 321 296 229 242 236 53 75 306 118 270 321 183 8 188 178 164 134 109 27 186 212 209 156 168 166 174 183 154 257 142 200 178 212 139 152 157 173 199 228 233 113 100 93 62 70 40 41 90 301 150 205 217 223 66 293 7 344 233 212 278 320 302 280 278 257 246 242 236 245 250 247 246 232 231 224 219 216 214 215
190 184 184 184 168 187 212 222 280 248 234 277 293 299 103 243 339 285 238 265 96 144 207 142 238 184 159 155 164 176 207 135 126 172 130 176 178 139 211 194 196 204 180 189 193 197 199 58 30 104 92 96 123 117 119 127 257 199 212 229 238 223 208 200 151 236 192 262 26 311 289 270 260 270 265 249 232 236 256 265 261 253 234 229 240 245 210 210
194 184 178 170 163 160 184 178 228 240 23 314 265 255 200 105 306 44 344 226 207 186 320 322 120 278 134 321 122 189 152 25 353 137 161 193 156 97 219 194 232 213 209 193 205 227 246 141 245 100 105 103 136 157 185 161 249 264 207 196 210 250 294 50 55 24 344 289 238 1 348 297 300 237 238 291 95 222 246 243 248 245 242 235 238 236 245 247
195 188 176 163 151 163 127 213 181 177 118 206 39 37 82 115 87 40 41 235 262 145 27 193 113 202 86 142 110 218 55 209 8 97 143 37 347 220 80 274 133 220 214 193 208 204 191 5 261 144 128 137 195 196 197 151 212 41 288 3 15 320 19 60 344 58 314 270 246 270 121 274 323 293 287 287 282 255 232 220 244 248 238 212 221 224 220 218
198 191 177 160 156 145 182 83 64 124 172 129 31 57 97 135 47 341 145 67 282 169 155 343 63 234 22 162 158 137 143 191 160 60 133 2 189 45 176 169 83 43 307 59 43 270 94 208 72 107 132 130 170 191 188 153 147 250 317 327 344 79 103 46 52 173 238 326 274 178 174 260 287 260 241 250 254 261 254 241 239 239 231 214 206 207 198 178
210 191 177 167 164 178 11 112 144 213 36 27 11 110 181 86 118 192 53 192 260 133 148 225 267 317 333 170 194 158 33 120 139 194 10 25 335 72 39 167 173 183 213 90 188 7 143 173 148 162 169 157 190 204 179 158 154 190 226 276 72 71 91 38 121 317 285 25 289 174 161 319 244 255 214 223 250 263 255 237 245 241 233 192 143 119 110 106
336 191 178 172 172 202 337 338 298 5 30 73 141 175 59 115 344 243 156 209 101 106 315 113 319 186 85 142 211 135 149 358 296 72 267 37 21 105 196 246 251 198 181 183 210 132 355 144 196 173 156 198 108 17 0 165 154 249 213 80 96 65 54 74 11 64 321 32 275 155 180 205 281 221 224 212 217 251 244 230 235 239 193 134 121 115 110 98
18 259 169 173 173 209 293 298 276 76 251 113 143 136 238 221 96 83 105 247 126 193 36 97 217 166 163 149 181 148 163 76 46 131 166 160 181 277 359 111 304 259 193 200 225 79 124 199 171 73 189 106 118 50 51 47 82 140 175 91 54 59 71 333 71 69 26 250 265 165 193 156 290 269 186 150 207 214 235 246 306 82 83 86 121 144 155 150
2 3 178 168 180 175 145 238 168 80 62 263 119 216 231 52 155 161 195 208 15 80 123 148 127 139 163 163 165 190 159 122 147 145 120 218 93 317 216 2 2 32 37 8 327 137 142 56 327 124 38 117 103 72 18 10 110 131 123 126 111 8 25 25 343 47 127 260 317 161 173 188 199 297 12 104 206 201 96 342 148 140 127 150 172 174 155 155
1 354 192 179 162 140 180 218 125 80 35 349 315 57 179 96 325 196 197 60 238 175 174 173 164 159 177 179 140 173 167 142 157 172 154 176 153 175 204 187 147 139 276 183 244 74 208 211 135 60 306 132 133 88 5 22 352 54 127 111 114 237 66 307 82 259 200 238 265 335 221 285 239 231 22 329 260 290 233 185 40 107 158 183 206 178 164 159
2 350 230 197 158 185 203 38 122 132 136 357 67 81 110 164 207 208 242 154 249 117 203 145 156 170 170 176 183 161 149 170 160 199 133 181 166 215 208 202 182 177 206 180 203 122 272 145 159 135 41 254 164 132 160 51 236 183 164 159 123 193 193 239 229 211 253 266 287 327 13 248 272 296 232 245 239 219 215 209 169 164 182 186 191 178 176 187
352 340 207 200 208 155 118 138 143 138 108 74 87 47 66 209 219 190 206 190 43 301 115 126 152 155 168 177 184 149 164 218 155 185 172 160 196 195 212 233 209 224 251 120 188 177 232 304 236 123 254 170 206 197 176 165 176 200 192 160 174 162 173 217 175 210 219 221 255 293 85 237 102 246 308 70 28 333 316 312 221 276 2 80 162 183 195 192
332 319 290 156 200 138 139 148 147 128 109 116 108 144 174 215 237 186 210 163 68 92 97 128 133 151 193 211 128 171 127 176 174 160 185 165 201 210 189 202 216 210 169 224 204 150 210 231 195 183 151 159 185 205 157 120 145 217 205 221 246 222 133 214 181 133 277 12 319 226 211 229 198 284 274 270 306 310 322 323 308 294 266 150 182 213 214 211
323 247 241 240 192 144 146 156 146 118 124 122 130 172 201 192 200 140 225 87 131 140 132 126 135 163 183 188 349 188 334 108 186 150 205 203 207 204 203 194 197 196 181 198 152 177 132 233 98 70 135 174 195 168 202 144 188 212 131 215 203 65 143 21 3 43 97 16 254 180 296 272 308 275 249 248 248 249 251 255 242 256 274 231 238 257 249 224
255 207 217 195 221 152 152 153 146 135 132 162 184 217 204 240 167 121 279 254 106 141 152 141 196 178 178 198 182 191 183 86 177 152 207 162 263 220 214 221 188 194 211 180 244 210 150 201 325 93 198 254 3 257 318 20 113 105 193 219 75 49 93 147 214 58 184 221 260 153 243 278 40 284 41 190 225 241 229 231 233 239 244 254 254 258 259 252
286 235 267 239 166 149 149 147 139 143 147 174 234 241 338 223 188 222 6 303 279 171 184 174 176 187 191 185 189 177 176 178 177 177 216 164 253 191 209 217 196 201 203 203 190 257 149 260 228 350 360 2 340 42 295 62 35 123 179 326 137 255 263 240 105 239 244 231 272 246 237 255 225 253 271 321 183 230 222 226 231 242 245 240 251 257 263 233
277 287 253 200 135 143 142 139 143 150 168 176 183 206 237 248 13 227 161 333 342 228 214 207 199 199 194 196 174 174 166 190 163 196 166 189 221 184 199 186 206 200 198 188 213 238 119 199 272 340 12 193 61 155 196 212 346 10 14 344 236 111 187 161 193 212 136 243 235 269 263 257 228 241 248 237 226 211 221 219 222 221 226 223 235 246 231 178
240 209 241 129 139 129 133 134 137 168 178 191 174 218 176 205 219 231 236 184 263 169 244 230 217 212 210 227 167 170 187 194 168 196 199 166 214 179 186 180 181 195 182 189 212 152 271 144 237 289 307 101 196 203 215 168 155 217 51 256 256 155 298 108 305 185 181 205 218 258 275 256 252 204 231 235 233 230 217 216 212 209 215 217 231 222 186 192
240 276 316 127 131 132 132 133 170 194 189 221 160 174 163 194 189 202 214 220 99 20 22 83 6 251 247 209 233 157 181 197 189 195 192 201 189 237 190 174 174 184 172 184 196 167 206 151 200 111 333 228 228 201 200 187 186 185 185 203 194 170 179 209 258 182 201 206 224 227 257 281 261 151 261 263 261 15 108 130 139 184 205 123 112 127 179 198
226 218 199 150 132 139 134 169 219 190 224 195 199 176 187 200 186 189 183 135 186 139 196 66 104 158 324 343 359 23 176 191 204 205 193 211 198 213 331 354 192 153 164 179 195 194 173 156 168 184 206 208 213 209 203 83 207 222 197 215 201 200 185 171 220 240 79 261 341 215 289 260 259 64 268 277 258 121 98 81 2 271 245 172 175 162 151 174
226 217 35 153 153 153 156 216 183 198 217 220 141 180 168 182 197 174 178 168 196 186 194 189 214 30 290 187 356 81 350 329 220 214 158 208 191 14 348 0 7 156 148 188 178 265 95 169 166 250 118 30 40 182 98 197 121 318 260 251 155 210 200 201 189 186 173 188 209 243 240 262 289 109 155 121 140 158 108 78 259 253 216 191 220 199 176 220
229 238 116 228 177 173 175 201 202 205 219 215 201 208 187 195 185 182 189 182 185 165 198 200 209 218 264 99 103 138 314 295 295 38 339 334 115 349 14 9 355 157 155 225 160 189 163 233 182 167 239 145 330 359 331 2 18 216 205 202 219 246 201 201 216 10 246 198 205 182 240 248 275 320 38 108 172 155 246 249 178 236 261 228 215 236 202 183
242 250 261 150 220 209 206 198 212 204 217 214 190 209 193 226 219 194 181 186 184 184 163 209 199 161 198 155 197 229 302 151 306 306 347 339 132 76 29 18 352 58 54 316 30 316 202 186 170 193 207 214 221 204 205 206 215 232 208 211 203 207 199 128 214 172 230 225 221 217 249 259 258 72 47 142 194 258 259 211 217 209 232 287 250 226 219 200
207 216 191 197 194 225 236 278 318 236 221 210 214 215 202 209 191 205 184 194 182 186 193 172 180 156 179 161 195 204 224 216 199 278 62 265 180 27 8 13 50 55 356 44 9 33 150 297 210 203 208 224 225 150 205 145 125 182 222 206 214 207 206 203 150 189 219 225 232 232 238 257 264 250 254 257 239 203 191 223 228 261 273 263 270 268 250 221
296 231 178 190 158 234 245 230 230 226 234 201 219 181 214 211 189 209 190 215 197 191 197 194 163 177 193 180 197 214 206 202 200 224 233 234 84 143 59 89 65 39 10 34 348 70 61 276 254 254 246 250 254 221 102 148 172 206 208 218 213 210 203 206 203 224 218 223 249 234 236 248 261 261 245 258 261 266 266 236 237 252 236 229 232 230 225 245
232 244 251 193 194 194 204 227 217 229 238 238 242 221 214 203 203 205 192 227 167 195 189 218 199 194 181 189 182 207 187 205 186 212 223 224 210 139 64 8 61 342 33 68 4 116 135 221 264 288 278 280 289 291 307 265 177 197 211 213 208 212 214 210 222 233 226 218 238 245 238 239 253 262 259 232 258 259 261 265 260 254 267 272 263 249 262 269
248 326 277 324 240 200 207 214 196 214 223 224 241 235 229 218 214 204 176 187 209 207 196 203 204 203 200 191 191 205 188 193 210 211 207 189 207 146 193 35 357 15 75 61 17 251 88 251 268 50 300 287 280 281 314 287 283 285 268 244 218 210 217 217 227 230 232 240 248 256 256 251 255 266 270 270 269 274 284 284 289 294 283 279 278 264 255 253
200 210 242 249 269 292 255 198 177 190 223 211 226 220 227 226 225 204 182 176 190 211 196 218 205 200 200 204 204 208 199 200 186 203 199 183 198 190 221 190 129 339 28 125 134 336 135 270 100 93 256 268 272 279 288 279 282 277 273 268 263 249 229 224 229 236 244 252 251 253 261 268 261 261 296 281 275 288 292 286 282 283 289 278 269 258 250 248
272 289 354 334 248 229 261 237 186 190 205 211 220 229 227 227 235 219 219 189 193 186 188 211 214 201 201 207 210 221 217 208 208 210 187 174 203 195 180 250 144 142 128 97 78 98 141 249 60 128 194 263 265 261 253 251 258 261 265 264 250 241 244 236 230 225 227 233 238 248 257 258 265 269 262 273 277 280 277 272 274 280 281 279 263 253 255 259
235 275 286 314 263 228 224 235 235 187 212 204 206 219 212 220 227 217 253 206 194 201 187 200 207 208 213 212 216 216 217 216 229 248 138 190 216 160 192 182 161 149 171 170 148 140 181 153 162 171 218 239 270 156 228 224 241 253 240 238 238 242 247 252 249 235 231 229 237 233 242 252 266 273 270 274 272 266 272 279 283 279 274 263 260 260 258 259